CAPE
6 4 1 12 12 9 7 3 0 6 12 12 14 14 0 0 0 0 0 0 0 0 0 0 0 0 0 0 0 0 0 4 39 160 246 441 474 39 10 0 13 188 757 1024 1393
8 12 11 15 10 7 7 1 0 12 11 10 11 0 2 0 0 0 0 57 0 5 0 0 0 0 0 0 0 0 0 10 56 230 309 174 196 101 26 41 188 792 1251 1668 1529
1 12 16 13 14 9 10 0 0 11 12 1 0 5 6 0 0 127 219 42 0 18 0 0 0 0 0 0 0 0 0 19 9 24 62 23 13 68 23 256 446 1272 1344 1221 1272
0 11 12 14 14 10 0 0 2 13 12 0 0 2 1 0 169 151 419 106 35 0 0 0 0 0 0 0 0 0 0 0 0 0 0 2 14 108 3 0 169 890 1285 1132 1506
0 5 9 8 0 0 0 0 0 3 0 0 0 0 0 34 90 381 220 154 0 0 0 0 0 0 0 0 0 0 0 0 0 0 0 4 30 9 78 227 641 1186 1252 1054 1335
0 3 7 0 0 0 0 0 0 0 0 0 0 0 0 48 4 278 25 0 0 0 0 0 0 0 0 0 1 0 0 0 1 0 46 185 57 0 200 407 745 1009 771 620 641
0 2 0 0 0 0 0 0 0 0 0 0 0 0 0 9 6 262 5 0 0 0 0 0 0 0 0 0 0 0 0 1 0 4 79 13 2 12 322 460 470 530 428 365 270
0 0 0 0 0 0 0 0 0 0 0 0 0 0 8 25 2 1 161 36 24 1 0 0 0 0 0 0 0 0 0 20 13 8 0 0 3 8 225 491 514 516 540 582 489
0 0 0 0 0 0 0 0 0 0 0 0 0 0 134 0 0 0 22 18 7 0 0 0 0 0 0 0 4 0 0 2 12 5 0 0 1 39 130 452 611 760 874 797 626
0 0 0 0 0 0 0 0 0 0 0 0 0 71 34 0 7 0 0 0 2 2 0 0 0 1 2 0 0 2 9 5 3 0 0 12 24 70 158 301 612 749 912 784 697
0 0 0 0 0 0 0 0 0 0 0 0 12 1 0 0 0 1 0 0 9 47 3 0 10 2 0 0 0 0 0 4 5 0 1 61 27 49 206 220 297 507 733 773 777
0 0 0 0 0 0 0 0 1 32 140 0 0 0 0 0 0 0 0 5 7 13 0 0 0 0 0 1 0 1 4 24 3 1 129 103 157 94 178 268 400 407 482 601 725
0 0 0 0 0 0 0 0 23 50 393 47 0 0 0 0 0 18 0 16 12 0 0 36 3 4 0 0 0 10 7 34 75 116 117 124 228 239 171 321 491 560 586 612 750
0 0 0 0 0 0 0 0 16 137 269 0 0 0 0 0 0 0 0 19 28 4 64 6 39 48 7 10 53 32 83 40 62 153 114 54 135 180 344 297 292 455 632 726 870
0 0 0 0 4 0 93 100 93 366 102 8 3 0 0 4 21 11 9 2 35 61 55 157 152 80 75 127 112 195 164 149 159 210 151 163 112 31 422 414 340 379 497 660 864
0 0 0 0 0 0 0 257 500 328 46 0 0 0 14 0 1 8 0 9 12 22 22 18 120 171 196 126 115 160 198 182 136 169 204 79 11 295 503 424 451 528 644 919 1134
0 0 0 1 0 0 99 649 243 25 2 0 0 0 17 4 18 18 0 4 0 4 72 78 91 100 103 141 171 168 220 165 192 344 186 104 148 134 99 226 417 541 626 737 699
0 0 0 0 0 2 518 548 62 1 20 0 0 0 37 14 28 46 10 15 13 98 124 123 195 103 103 172 135 116 117 188 57 141 127 148 74 87 123 39 178 514 425 416 236
0 0 0 0 0 0 450 181 12 1 11 0 0 0 45 12 17 121 121 109 55 57 55 133 81 46 44 53 42 74 101 90 155 148 139 52 39 94 84 54 187 503 309 226 38
3 0 0 0 0 51 181 2 20 2 0 0 0 0 77 41 6 105 132 167 153 128 227 129 146 11 0 5 4 41 36 47 13 0 37 74 71 48 165 63 104 446 238 97 2
28 3 24 5 5 27 102 13 22 2 0 0 0 0 56 51 8 84 177 200 179 128 101 53 40 63 0 0 13 12 0 0 36 153 113 1 32 2 0 18 67 258 205 93 4
37 16 221 350 32 130 168 5 2 24 64 6 2 0 11 51 37 14 21 50 112 103 3 2 62 298 51 0 0 3 43 8 0 0 1 27 2 0 0 0 10 73 141 81 7
62 149 431 353 122 775 64 12 0 24 18 26 0 0 0 17 10 0 1 95 79 112 4 88 2 138 47 16 0 0 0 0 0 0 0 165 0 0 0 0 0 4 48 63 28
96 259 184 55 125 94 58 32 0 2 6 34 0 37 120 100 126 182 164 23 2 53 0 0 0 11 130 77 24 0 0 0 0 0 0 0 0 0 0 0 0 0 1 35 29
182 77 38 242 392 185 57 3 0 0 38 144 171 51 43 60 171 236 351 23 2 6 0 22 18 0 16 0 0 0 0 0 0 0 12 0 0 0 0 0 0 0 0 0 5
124 191 180 541 180 99 35 5 1 9 104 194 135 32 82 101 164 105 335 231 186 51 102 3 61 0 0 0 0 0 0 0 0 0 0 0 0 0 0 0 0 0 0 0 0
311 391 493 252 382 104 78 13 2 101 331 185 72 228 122 364 516 388 309 222 213 321 227 70 41 0 0 0 0 0 0 0 0 0 0 0 0 0 0 0 0 0 0 0 0
CIN
0 0 0 -1 -2 -4 -2 -4 0 -2 -5 -3 -2 -1 0 0 0 0 0 0 0 0 -1 0 0 0 0 0 0 0 0 0 -1 -4 -60 -1 -1 -1 -3 0 -42 -39 0 -3 -1
-1 -1 0 -1 -2 -2 -3 -2 0 -5 -3 -4 -3 0 -2 0 0 0 0 -650 0 -606 0 0 0 0 0 0 0 0 0 -2 -7 -15 -17 -21 0 -38 -1 -60 -25 -9 0 0 0
0 0 -1 0 -1 -2 -1 0 0 -5 -4 -1 0 -2 -1 0 0 -84 -530 -775 0 -276 0 0 0 0 0 0 0 0 0 -18 -27 -7 -29 -4 -6 -1 -12 -2 0 0 0 0 0
0 -2 -1 0 -1 -1 0 0 -1 -2 -4 0 0 -1 0 0 -31 -88 -513 -763 -764 0 0 0 0 0 0 0 0 0 0 0 0 0 0 -3 -1 -32 -39 0 -10 0 0 0 0
0 -2 -2 -1 0 0 0 0 0 -1 0 0 0 0 0 -369 -125 -240 -754 -737 0 0 0 0 0 0 0 0 0 0 0 0 -2 0 0 -7 -4 -7 -1 -1 -12 0 0 0 0
0 -3 -4 0 0 0 0 0 0 0 0 0 0 0 0 -218 -50 -80 -271 0 0 -83 0 0 0 0 0 0 -2 0 0 0 -2 0 -4 -1 -1 -12 -8 -1 -2 0 0 0 0
0 -4 0 0 0 0 0 0 0 0 0 0 0 0 0 -269 -159 -68 -221 0 0 0 0 0 0 0 0 -1 0 0 0 -2 0 -16 -1 -12 -5 -21 -12 -4 -8 0 0 -1 -2
0 0 0 0 0 0 0 0 0 0 0 0 0 0 -301 -163 -130 -87 -73 -114 -109 -37 0 0 0 0 0 0 0 0 0 0 -11 -2 0 0 -1 -15 -11 0 0 -1 0 0 -2
0 0 0 0 0 0 0 0 0 0 0 0 0 0 -83 0 0 0 -56 -90 -47 0 0 0 0 0 0 0 0 0 0 -2 -2 0 0 0 -1 -22 -8 -1 0 0 0 0 -3
0 0 0 0 0 0 0 0 0 0 0 0 0 -99 -158 0 -38 0 0 -14 -50 -93 0 0 -15 -18 -11 -1 0 -5 -1 0 0 0 0 0 -5 -18 -6 0 0 0 0 -7 -14
0 0 0 0 0 0 0 0 0 0 0 -9 -134 -82 0 0 0 -7 0 -21 -49 -40 -4 0 -4 0 0 0 0 0 0 -1 0 0 0 -1 0 -12 -7 -1 0 0 0 -2 -4
0 0 0 0 0 0 0 0 -8 -163 -72 0 0 0 0 0 0 0 0 -13 -13 -3 0 0 -4 0 0 -1 0 -2 -5 -2 -1 -6 -4 -1 0 -6 -6 -3 -2 -5 -4 -1 -5
0 0 0 0 0 0 0 0 -51 -141 -13 -57 0 0 0 0 0 -2 0 -1 -3 0 0 -8 -13 -19 0 -1 -1 -1 -1 -7 0 -7 -6 0 0 -6 -19 -26 -19 -16 -9 -8 -27
0 0 0 0 0 0 0 0 -77 -54 -5 0 0 0 0 0 0 -1 0 -6 -1 -2 -5 -23 -17 -9 -2 -2 -1 -1 -4 -2 -9 -3 0 0 -1 -1 -20 -37 -65 -39 -38 -36 -36
0 0 0 0 0 0 -8 -54 -37 -50 -2 0 0 0 -2 -15 -1 -56 -49 -22 -2 -1 -8 -2 -8 -1 0 -1 -14 -20 -11 -2 -1 0 -1 0 0 -325 -6 -25 -43 -68 -63 -63 -45
0 0 0 0 0 0 0 -61 -28 -2 -2 0 0 0 -14 0 -5 -10 0 -14 -9 -10 -4 -40 -23 -7 -4 -28 -19 -27 -8 -2 0 0 0 -1 -38 -7 0 -3 -30 -55 -76 -39 -16
0 0 0 0 0 0 -65 -2 0 0 -1 0 0 0 -6 -28 -27 -31 0 -10 0 -10 -1 -4 -2 -35 -23 -8 -15 -7 -1 0 0 0 0 -2 -2 -1 -1 -1 -1 -48 -59 -42 -41
0 0 0 0 0 0 -5 0 0 -1 0 0 0 0 -1 -4 -8 -26 -29 -10 -5 -2 -3 0 -4 -13 -30 -6 0 -1 0 0 -1 0 0 -6 -1 0 -10 -21 -11 -23 -53 -70 -106
0 0 0 0 0 0 0 -1 0 0 0 0 0 0 0 -14 -11 -3 0 0 -1 -7 -4 0 -1 -52 -50 -24 -13 0 -4 -3 0 -11 -3 -8 0 -3 -59 -48 -23 -13 -62 -99 -180
0 0 0 0 0 -19 -1 -1 0 -1 0 0 0 0 0 -7 -7 -1 0 -1 -5 -23 -20 -3 -1 -25 0 -37 -35 -20 -2 -14 -16 0 -2 0 -1 0 -19 -49 -54 -18 -71 -130 -111
0 0 -21 -122 -3 -9 -11 -14 0 -10 0 0 0 0 0 -1 -18 0 -1 -8 -12 -12 -11 0 -4 -9 0 0 -1 -24 0 0 -5 -2 0 0 -1 -5 0 -68 -72 -42 -64 -118 -205
0 0 -11 -22 -2 -10 0 0 -4 -8 -44 -75 -7 0 -10 0 -12 -4 -1 -1 -27 -17 -1 -6 0 -2 -5 0 0 0 0 -1 0 0 -2 -34 -13 0 0 -3 -119 -91 -61 -84 -149
-1 -1 0 -14 0 0 0 0 0 -13 -51 -64 0 0 0 -27 -24 0 -5 -114 -89 -31 -3 -21 -6 0 0 -13 0 0 0 0 0 0 0 -5 0 0 0 0 0 -91 -88 -100 -106
0 -15 -11 -14 -2 0 0 0 0 -12 -31 -46 0 -21 -21 -7 -3 -1 0 -86 -29 -35 0 0 0 -2 0 0 -5 0 0 0 0 -3 0 0 0 0 0 0 0 0 -14 -54 -81
-3 -6 -31 0 0 -1 -1 0 0 0 -24 -18 -19 -40 -32 -7 0 0 0 -76 -65 -28 0 -34 -17 -1 -2 0 0 0 0 0 0 0 -5 0 0 0 0 0 0 0 0 0 -17
-1 -21 0 0 -1 0 -4 0 0 -11 -16 -14 -20 -32 -3 0 0 0 -1 -16 -11 -75 -39 -36 -2 0 0 0 0 0 0 0 0 0 0 0 0 0 0 0 0 0 0 0 0
-30 -66 -1 -9 0 -1 0 0 0 -3 -11 -3 -19 -1 -2 -7 -17 -28 -29 -20 -7 -18 -27 -31 -13 0 0 0 0 0 0 0 0 0 0 0 0 0 0 0 0 0 0 0 0
Wind_Speed
nan nan nan nan nan nan nan nan nan nan nan nan nan nan nan nan nan nan nan nan nan nan nan nan nan nan nan nan nan nan nan nan nan 23 11 11 25 nan nan nan nan 12 32 29 23
nan nan nan nan nan nan nan nan nan nan nan nan nan nan nan nan nan nan nan nan nan nan nan nan nan nan nan nan nan nan nan nan nan 32 26 18 19 15 nan nan 17 27 38 23 17
nan nan nan nan nan nan nan nan nan nan nan nan nan nan nan nan nan 17 20 nan nan nan nan nan nan nan nan nan nan nan nan nan nan nan nan nan nan nan nan 7 24 23 19 11 18
nan nan nan nan nan nan nan nan nan nan nan nan nan nan nan nan 9 18 9 15 nan nan nan nan nan nan nan nan nan nan nan nan nan nan nan nan nan 25 nan nan 39 11 17 17 18
nan nan nan nan nan nan nan nan nan nan nan nan nan nan nan nan nan 19 20 18 nan nan nan nan nan nan nan nan nan nan nan nan nan nan nan nan nan nan nan 13 18 16 15 14 17
nan nan nan nan nan nan nan nan nan nan nan nan nan nan nan nan nan 14 nan nan nan nan nan nan nan nan nan nan nan nan nan nan nan nan nan 3 nan nan 11 20 22 19 21 18 14
nan nan nan nan nan nan nan nan nan nan nan nan nan nan nan nan nan 14 nan nan nan nan nan nan nan nan nan nan nan nan nan nan nan nan nan nan nan nan 9 16 17 17 16 16 14
nan nan nan nan nan nan nan nan nan nan nan nan nan nan nan nan nan nan 7 nan nan nan nan nan nan nan nan nan nan nan nan nan nan nan nan nan nan nan 8 16 15 18 16 16 16
nan nan nan nan nan nan nan nan nan nan nan nan nan nan 8 nan nan nan nan nan nan nan nan nan nan nan nan nan nan nan nan nan nan nan nan nan nan nan 10 15 19 19 18 17 17
nan nan nan nan nan nan nan nan nan nan nan nan nan nan nan nan nan nan nan nan nan nan nan nan nan nan nan nan nan nan nan nan nan nan nan nan nan nan 12 14 20 21 20 18 20
nan nan nan nan nan nan nan nan nan nan nan nan nan nan nan nan nan nan nan nan nan nan nan nan nan nan nan nan nan nan nan nan nan nan nan nan nan nan 10 11 17 17 18 17 20
nan nan nan nan nan nan nan nan nan nan 6 nan nan nan nan nan nan nan nan nan nan nan nan nan nan nan nan nan nan nan nan nan nan nan 12 2 11 nan 11 14 18 15 16 18 20
nan nan nan nan nan nan nan nan nan nan 7 nan nan nan nan nan nan nan nan nan nan nan nan nan nan nan nan nan nan nan nan nan nan 6 13 5 19 14 12 12 8 12 13 15 18
nan nan nan nan nan nan nan nan nan 11 10 nan nan nan nan nan nan nan nan nan nan nan nan nan nan nan nan nan nan nan nan nan nan 9 5 nan 3 7 15 13 10 13 15 19 21
nan nan nan nan nan nan nan 20 nan 14 14 nan nan nan nan nan nan nan nan nan nan nan nan 6 7 nan nan 15 7 36 11 10 4 8 7 16 5 nan 15 19 20 18 19 22 26
nan nan nan nan nan nan nan 21 18 16 nan nan nan nan nan nan nan nan nan nan nan nan nan nan 18 16 19 11 8 13 14 6 8 4 9 nan nan 31 20 17 29 26 25 28 30
nan nan nan nan nan nan nan 20 16 nan nan nan nan nan nan nan nan nan nan nan nan nan nan nan nan 22 16 20 19 8 3 3 3 9 10 13 17 9 nan 21 30 29 33 32 30
nan nan nan nan nan nan 21 18 nan nan nan nan nan nan nan nan nan nan nan nan nan nan 1 10 17 19 20 8 9 4 7 4 nan 6 6 25 nan nan 31 nan 29 35 31 30 28
nan nan nan nan nan nan 20 17 nan nan nan nan nan nan nan nan nan 11 12 4 nan nan nan 2 nan nan nan nan nan nan 12 nan 19 19 14 nan nan nan nan nan 26 31 24 22 nan
nan nan nan nan nan nan 22 nan nan nan nan nan nan nan nan nan nan 8 10 21 18 18 26 21 17 nan nan nan nan nan nan nan nan nan nan nan nan nan 21 nan 12 18 19 nan nan
nan nan nan nan nan nan 20 nan nan nan nan nan nan nan nan nan nan nan 6 17 12 12 15 nan nan nan nan nan nan nan nan nan nan 16 11 nan nan nan nan nan nan 16 23 nan nan
nan nan 44 42 nan 24 17 nan nan nan nan nan nan nan nan nan nan nan nan nan 14 11 nan nan nan 20 nan nan nan nan nan nan nan nan nan nan nan nan nan nan nan nan 26 nan nan
nan 51 49 41 31 25 nan nan nan nan nan nan nan nan nan nan nan nan nan nan nan 12 nan nan nan 15 nan nan nan nan nan nan nan nan nan 13 nan nan nan nan nan nan nan nan nan
nan 50 54 nan 33 nan nan nan nan nan nan nan nan nan 10 12 14 16 18 nan nan nan nan nan nan nan 11 nan nan nan nan nan nan nan nan nan nan nan nan nan nan nan nan nan nan
59 nan nan 43 33 25 nan nan nan nan nan 18 14 nan nan nan 15 15 17 nan nan nan nan nan nan nan nan nan nan nan nan nan nan nan nan nan nan nan nan nan nan nan nan nan nan
62 51 48 40 31 nan nan nan nan nan 22 15 14 nan nan 10 8 8 11 13 14 nan 14 nan nan nan nan nan nan nan nan nan nan nan nan nan nan nan nan nan nan nan nan nan nan
64 65 53 47 34 35 nan nan nan 29 36 31 nan 12 5 15 22 25 25 20 19 15 13 nan nan nan nan nan nan nan nan nan nan nan nan nan nan nan nan nan nan nan nan nan nan
Wind_Direction
nan nan nan nan nan nan nan nan nan nan nan nan nan nan nan nan nan nan nan nan nan nan nan nan nan nan nan nan nan nan nan nan nan 256 288 246 280 nan nan nan nan 83 289 293 273
nan nan nan nan nan nan nan nan nan nan nan nan nan nan nan nan nan nan nan nan nan nan nan nan nan nan nan nan nan nan nan nan nan 248 219 217 299 310 nan nan 281 283 278 296 314
nan nan nan nan nan nan nan nan nan nan nan nan nan nan nan nan nan 309 308 nan nan nan nan nan nan nan nan nan nan nan nan nan nan nan nan nan nan nan nan 336 303 305 296 307 299
nan nan nan nan nan nan nan nan nan nan nan nan nan nan nan nan 322 286 316 322 nan nan nan nan nan nan nan nan nan nan nan nan nan nan nan nan nan 262 nan nan 73 328 334 330 313
nan nan nan nan nan nan nan nan nan nan nan nan nan nan nan nan nan 276 281 295 nan nan nan nan nan nan nan nan nan nan nan nan nan nan nan nan nan nan nan 300 285 300 326 327 321
nan nan nan nan nan nan nan nan nan nan nan nan nan nan nan nan nan 289 nan nan nan nan nan nan nan nan nan nan nan nan nan nan nan nan nan 138 nan nan 235 278 293 323 330 324 330
nan nan nan nan nan nan nan nan nan nan nan nan nan nan nan nan nan 288 nan nan nan nan nan nan nan nan nan nan nan nan nan nan nan nan nan nan nan nan 254 290 309 314 316 319 311
nan nan nan nan nan nan nan nan nan nan nan nan nan nan nan nan nan nan 18 nan nan nan nan nan nan nan nan nan nan nan nan nan nan nan nan nan nan nan 288 292 304 314 324 332 327
nan nan nan nan nan nan nan nan nan nan nan nan nan nan 303 nan nan nan nan nan nan nan nan nan nan nan nan nan nan nan nan nan nan nan nan nan nan nan 335 337 322 322 327 328 328
nan nan nan nan nan nan nan nan nan nan nan nan nan nan nan nan nan nan nan nan nan nan nan nan nan nan nan nan nan nan nan nan nan nan nan nan nan nan 324 321 315 324 326 327 333
nan nan nan nan nan nan nan nan nan nan nan nan nan nan nan nan nan nan nan nan nan nan nan nan nan nan nan nan nan nan nan nan nan nan nan nan nan nan 316 327 327 331 324 322 322
nan nan nan nan nan nan nan nan nan nan 227 nan nan nan nan nan nan nan nan nan nan nan nan nan nan nan nan nan nan nan nan nan nan nan 122 284 279 nan 322 328 325 325 330 330 320
nan nan nan nan nan nan nan nan nan nan 259 nan nan nan nan nan nan nan nan nan nan nan nan nan nan nan nan nan nan nan nan nan nan 329 111 307 291 311 312 298 332 336 334 322 315
nan nan nan nan nan nan nan nan nan 235 252 nan nan nan nan nan nan nan nan nan nan nan nan nan nan nan nan nan nan nan nan nan nan 335 359 nan 268 256 311 308 318 318 306 309 311
nan nan nan nan nan nan nan 226 nan 266 248 nan nan nan nan nan nan nan nan nan nan nan nan 276 181 nan nan 226 190 287 99 270 227 83 206 6 256 nan 90 313 309 305 304 299 295
nan nan nan nan nan nan nan 219 245 255 nan nan nan nan nan nan nan nan nan nan nan nan nan nan 215 186 234 289 280 273 275 291 198 139 242 nan nan 302 323 305 294 298 295 293 294
nan nan nan nan nan nan nan 238 240 nan nan nan nan nan nan nan nan nan nan nan nan nan nan nan nan 247 265 285 284 277 273 349 320 268 306 246 232 231 nan 296 291 299 300 295 292
nan nan nan nan nan nan 232 242 nan nan nan nan nan nan nan nan nan nan nan nan nan nan 257 234 291 288 269 231 285 247 130 211 nan 216 191 282 nan nan 241 nan 280 301 299 302 302
nan nan nan nan nan nan 221 241 nan nan nan nan nan nan nan nan nan 171 161 161 nan nan nan 180 nan nan nan nan nan nan 221 nan 217 250 251 nan nan nan nan nan 288 305 314 315 nan
nan nan nan nan nan nan 221 nan nan nan nan nan nan nan nan nan nan 166 198 205 224 199 194 214 224 nan nan nan nan nan nan nan nan nan nan nan nan nan 286 nan 316 328 330 nan nan
nan nan nan nan nan nan 215 nan nan nan nan nan nan nan nan nan nan nan 230 236 206 223 198 nan nan nan nan nan nan nan nan nan nan 252 245 nan nan nan nan nan nan 334 328 nan nan
nan nan 218 227 nan 214 194 nan nan nan nan nan nan nan nan nan nan nan nan nan 228 230 nan nan nan 260 nan nan nan nan nan nan nan nan nan nan nan nan nan nan nan nan 320 nan nan
nan 211 210 206 211 204 nan nan nan nan nan nan nan nan nan nan nan nan nan nan nan 236 nan nan nan 258 nan nan nan nan nan nan nan nan nan 254 nan nan nan nan nan nan nan nan nan
nan 207 212 nan 192 nan nan nan nan nan nan nan nan nan 222 229 233 248 253 nan nan nan nan nan nan nan 247 nan nan nan nan nan nan nan nan nan nan nan nan nan nan nan nan nan nan
196 nan nan 213 201 190 nan nan nan nan nan 187 195 nan nan nan 256 248 263 nan nan nan nan nan nan nan nan nan nan nan nan nan nan nan nan nan nan nan nan nan nan nan nan nan nan
196 196 210 216 200 nan nan nan nan nan 195 183 173 nan nan 243 246 244 262 257 251 nan 252 nan nan nan nan nan nan nan nan nan nan nan nan nan nan nan nan nan nan nan nan nan nan
188 199 202 207 201 192 nan nan nan 203 186 178 nan 212 188 222 221 219 228 226 235 249 257 nan nan nan nan nan nan nan nan nan nan nan nan nan nan nan nan nan nan nan nan nan nan